• In Czech Republic
  • List of Countries
  • For 7 days
  • Water Temperature
  • Satellite Maps
  • Weather Map
  • Weather Widgets
  • user-avatar
    Login

    Hourly Weather Volkovo

    Today, 20 September, Thursday

    Time Temperature Precipitation Wind Pressure Humidity
    00:00 +15°C° 0 mm 5 mps 751 mmHg 84%
    01:00 +15°C° 0 mm 5 mps 751 mmHg 86%
    02:00 +15°C° 0 mm 4 mps 751 mmHg 88%
    03:00 +14°C° 0 mm 3 mps 751 mmHg 93%
    04:00 +13°C° 0 mm 3 mps 751 mmHg 94%
    05:00 +13°C° 0 mm 3 mps 751 mmHg 94%
    06:00 +13°C° 0 mm 3 mps 751 mmHg 94%
    07:00 +14°C° 0 mm 3 mps 751 mmHg 89%
    08:00 +17°C° 0 mm 4 mps 751 mmHg 83%
    09:00 +19°C° 0 mm 4 mps 751 mmHg 77%
    10:00 +21°C° 0 mm 5 mps 751 mmHg 71%
    11:00 +22°C° 0 mm 5 mps 751 mmHg 66%
    12:00 +24°C° 0 mm 6 mps 751 mmHg 60%
    13:00 +24°C° 0 mm 6 mps 750 mmHg 59%
    14:00 +26°C° 0 mm 6 mps 750 mmHg 57%
    15:00 +26°C° 0 mm 6 mps 750 mmHg 55%
    16:00 +25°C° 0 mm 5 mps 750 mmHg 61%
    17:00 +23°C° 0 mm 4 mps 750 mmHg 66%
    18:00 +22°C° 0 mm 4 mps 750 mmHg 71%
    19:00 +21°C° 0 mm 4 mps 750 mmHg 75%
    20:00 +20°C° 0 mm 4 mps 750 mmHg 79%
    21:00 +20°C° 0 mm 4 mps 750 mmHg 82%
    22:00 +19°C° 0 mm 4 mps 750 mmHg 84%
    23:00 +18°C° 0 mm 4 mps 750 mmHg 85%

    Tomorrow, 21 September, Friday

    Time Temperature Precipitation Wind Pressure Humidity
    00:00 +18°C° 0 mm 4 mps 751 mmHg 86%
    01:00 +17°C° 0 mm 3 mps 751 mmHg 89%
    02:00 +16°C° 0 mm 3 mps 751 mmHg 91%
    03:00 +14°C° 0 mm 3 mps 752 mmHg 93%
    04:00 +13°C° 0 mm 3 mps 752 mmHg 93%
    05:00 +13°C° 0 mm 3 mps 752 mmHg 94%
    06:00 +12°C° 0 mm 3 mps 753 mmHg 94%
    07:00 +14°C° 0 mm 3 mps 753 mmHg 87%
    08:00 +16°C° 0 mm 3 mps 753 mmHg 79%
    09:00 +18°C° 0 mm 3 mps 754 mmHg 72%
    10:00 +19°C° 0 mm 3 mps 754 mmHg 66%
    11:00 +21°C° 0 mm 3 mps 754 mmHg 59%
    12:00 +22°C° 0 mm 3 mps 754 mmHg 53%
    13:00 +22°C° 0 mm 3 mps 754 mmHg 52%
    14:00 +24°C° 0 mm 3 mps 754 mmHg 51%
    15:00 +25°C° 0 mm 3 mps 754 mmHg 50%
    16:00 +23°C° 0 mm 2 mps 755 mmHg 55%
    17:00 +21°C° 0 mm 2 mps 755 mmHg 60%
    18:00 +21°C° 0 mm 1 mps 755 mmHg 65%
    19:00 +20°C° 0 mm 1 mps 755 mmHg 67%
    20:00 +19°C° 0 mm 1 mps 755 mmHg 70%
    21:00 +19°C° 0 mm 1 mps 755 mmHg 73%
    22:00 +18°C° 0 mm 1 mps 755 mmHg 74%
    23:00 +18°C° 0 mm 1 mps 756 mmHg 75%

    Day after tomorrow, 22 September, Saturday

    Time Temperature Precipitation Wind Pressure Humidity
    00:00 +18°C° 0 mm 1 mps 756 mmHg 77%
    01:00 +16°C° 0 mm 1 mps 756 mmHg 78%
    02:00 +16°C° 0 mm 1 mps 756 mmHg 80%
    03:00 +15°C° 0 mm 1 mps 756 mmHg 81%
    04:00 +15°C° 0 mm 1 mps 756 mmHg 83%
    05:00 +15°C° 0 mm 1 mps 756 mmHg 84%
    06:00 +15°C° 0 mm 1 mps 756 mmHg 85%
    07:00 +16°C° 0 mm 2 mps 756 mmHg 79%
    08:00 +18°C° 0 mm 2 mps 756 mmHg 73%
    09:00 +19°C° 0 mm 2 mps 757 mmHg 68%
    10:00 +21°C° 0 mm 2 mps 756 mmHg 63%
    11:00 +22°C° 0 mm 3 mps 756 mmHg 58%
    12:00 +24°C° 0 mm 3 mps 756 mmHg 54%
    13:00 +25°C° 0 mm 3 mps 756 mmHg 52%
    14:00 +25°C° 0 mm 3 mps 755 mmHg 51%
    15:00 +25°C° 0 mm 3 mps 755 mmHg 50%
    16:00 +24°C° 0 mm 3 mps 755 mmHg 54%
    17:00 +22°C° 0 mm 3 mps 754 mmHg 59%
    18:00 +20°C° 0 mm 3 mps 754 mmHg 64%
    19:00 +20°C° 0 mm 3 mps 754 mmHg 66%
    20:00 +19°C° 0 mm 3 mps 754 mmHg 67%
    21:00 +18°C° 0 mm 3 mps 754 mmHg 69%
    22:00 +18°C° 0 mm 3 mps 754 mmHg 70%
    23:00 +17°C° 0 mm 3 mps 754 mmHg 71%

    23 September, Sunday

    Time Temperature Precipitation Wind Pressure Humidity
    00:00 +17°C° 0 mm 3 mps 754 mmHg 72%
    01:00 +15°C° 0 mm 4 mps 753 mmHg 72%
    02:00 +15°C° 0 mm 4 mps 753 mmHg 72%
    03:00 +15°C° 0 mm 4 mps 753 mmHg 72%
    04:00 +15°C° 0 mm 4 mps 752 mmHg 72%
    05:00 +15°C° 0 mm 4 mps 752 mmHg 72%
    06:00 +14°C° 0 mm 5 mps 752 mmHg 72%
    07:00 +16°C° 0 mm 5 mps 751 mmHg 66%
    08:00 +17°C° 0 mm 6 mps 751 mmHg 60%
    09:00 +20°C° 0 mm 7 mps 751 mmHg 54%
    10:00 +21°C° 0 mm 7 mps 750 mmHg 50%
    11:00 +23°C° 0 mm 8 mps 749 mmHg 46%
    12:00 +24°C° 0 mm 8 mps 749 mmHg 42%
    13:00 +24°C° 0 mm 8 mps 748 mmHg 42%
    14:00 +26°C° 0 mm 8 mps 747 mmHg 42%
    15:00 +26°C° 0 mm 8 mps 747 mmHg 42%
    16:00 +24°C° 0.2 mm 7 mps 747 mmHg 47%
    17:00 +22°C° 0.2 mm 7 mps 747 mmHg 52%
    18:00 +21°C° 0.2 mm 6 mps 746 mmHg 57%
    19:00 +19°C° 0.9 mm 6 mps 746 mmHg 63%
    20:00 +17°C° 0.9 mm 6 mps 747 mmHg 68%
    21:00 +15°C° 0.9 mm 6 mps 747 mmHg 73%
    22:00 +13°C° 1.9 mm 6 mps 747 mmHg 78%
    23:00 +11°C° 1.9 mm 6 mps 747 mmHg 82%

    24 September, Monday

    Time Temperature Precipitation Wind Pressure Humidity
    00:00 +9°C° 1.9 mm 6 mps 747 mmHg 87%
    01:00 +9°C° 1.9 mm 6 mps 747 mmHg 87%
    02:00 +9°C° 1.9 mm 5 mps 747 mmHg 87%
    03:00 +9°C° 1.9 mm 5 mps 747 mmHg 86%
    04:00 +10°C° 0.2 mm 4 mps 747 mmHg 86%
    05:00 +10°C° 0.2 mm 4 mps 747 mmHg 86%
    06:00 +10°C° 0.2 mm 4 mps 747 mmHg 86%
    07:00 +11°C° 0 mm 4 mps 748 mmHg 83%
    08:00 +12°C° 0 mm 4 mps 748 mmHg 80%
    09:00 +12°C° 0 mm 4 mps 748 mmHg 77%
    10:00 +13°C° 0 mm 4 mps 748 mmHg 71%
    11:00 +15°C° 0 mm 4 mps 748 mmHg 64%
    12:00 +17°C° 0 mm 4 mps 749 mmHg 57%
    13:00 +17°C° 0 mm 4 mps 749 mmHg 55%
    14:00 +17°C° 0 mm 4 mps 749 mmHg 53%
    15:00 +18°C° 0 mm 4 mps 749 mmHg 51%
    16:00 +17°C° 0 mm 3 mps 748 mmHg 54%
    17:00 +16°C° 0 mm 2 mps 748 mmHg 58%
    18:00 +15°C° 0 mm 1 mps 748 mmHg 62%
    19:00 +14°C° 0 mm 2 mps 748 mmHg 62%
    20:00 +14°C° 0 mm 2 mps 747 mmHg 63%
    21:00 +13°C° 0 mm 3 mps 747 mmHg 63%
    22:00 +12°C° 0 mm 3 mps 746 mmHg 63%
    23:00 +12°C° 0 mm 4 mps 746 mmHg 63%

    25 September, Tuesday

    Time Temperature Precipitation Wind Pressure Humidity
    00:00 +12°C° 0 mm 5 mps 745 mmHg 63%
    01:00 +12°C° 0.6 mm 5 mps 745 mmHg 66%
    02:00 +11°C° 0.6 mm 6 mps 744 mmHg 69%
    03:00 +10°C° 0.6 mm 7 mps 743 mmHg 72%
    04:00 +10°C° 0.4 mm 7 mps 742 mmHg 75%
    05:00 +10°C° 0.4 mm 8 mps 741 mmHg 78%
    06:00 +10°C° 0.4 mm 9 mps 741 mmHg 82%
    07:00 +10°C° 0.1 mm 9 mps 740 mmHg 81%
    08:00 +11°C° 0.1 mm 9 mps 740 mmHg 80%
    09:00 +11°C° 0.1 mm 9 mps 740 mmHg 79%
    10:00 +11°C° 0 mm 9 mps 740 mmHg 74%
    11:00 +11°C° 0 mm 10 mps 740 mmHg 68%
    12:00 +11°C° 0 mm 10 mps 739 mmHg 63%
    13:00 +11°C° 0 mm 10 mps 739 mmHg 61%
    14:00 +11°C° 0 mm 10 mps 739 mmHg 60%
    15:00 +11°C° 0 mm 11 mps 739 mmHg 59%
    16:00 +11°C° 0 mm 10 mps 740 mmHg 60%
    17:00 +9°C° 0 mm 10 mps 740 mmHg 61%
    18:00 +8°C° 0 mm 10 mps 740 mmHg 62%
    19:00 +8°C° 0.1 mm 10 mps 740 mmHg 64%
    20:00 +8°C° 0.1 mm 10 mps 740 mmHg 66%
    21:00 +7°C° 0.1 mm 10 mps 740 mmHg 68%
    22:00 +7°C° 0.1 mm 10 mps 740 mmHg 70%
    23:00 +7°C° 0.1 mm 10 mps 740 mmHg 72%
    Show more